This is the latest recevied weather packets stored in our database for station/object K4HOG. If no packets are shown the sender has not sent any weather packets the latest 1 day(s).
| Time | Temp. | Humidity | Pressure | Rain* | Wind** | Luminosity | Snow |
|---|---|---|---|---|---|---|---|
| 1836274593 | 21.67° C | 95% | 1016.4 hPa | 0 mm | 0 m/s | 0 W/m² | - |
| 1836274447 | 21.67° C | 95% | 1016.4 hPa | 0 mm | 0 m/s | 0 W/m² | - |
| 1836274292 | 22.22° C | 95% | 1016.3 hPa | 0 mm | 0 m/s | 0 W/m² | - |
| 1836274145 | 21.67° C | 95% | 1016.3 hPa | 0 mm | 0 m/s | 0 W/m² | - |
| 1836273991 | 22.22° C | 95% | 1016.4 hPa | 0 mm | 0 m/s | 0 W/m² | - |
| 1778041506 | 18.89° C | 80% | 1016.6 hPa | 0 mm | 0 m/s | 0 W/m² | - |
| 1778041203 | 18.89° C | 80% | 1016.9 hPa | 0 mm | 0 m/s | 0 W/m² | - |
| 1778040901 | 19.44° C | 79% | 1016.8 hPa | 0 mm | 0 m/s | 0 W/m² | - |
| 1778040598 | 19.44° C | 79% | 1016.9 hPa | 0 mm | 0 m/s | 0 W/m² | - |
| 1778040296 | 19.44° C | 78% | 1016.9 hPa | 0 mm | 0 m/s | 0 W/m² | - |
| 1778039991 | 19.44° C | 78% | 1016.8 hPa | 0 mm | 0 m/s | 0 W/m² | - |
| 1778039689 | 20° C | 77% | 1016.7 hPa | 0 mm | 0 m/s | 0 W/m² | - |
| 1778039385 | 20° C | 76% | 1016.8 hPa | 0 mm | 0 m/s | 0 W/m² | - |
| 1778039083 | 20° C | 75% | 1016.8 hPa | 0 mm | 0 m/s | 0 W/m² | - |
| 1778038780 | 20° C | 75% | 1016.4 hPa | 0 mm | 0 m/s | 0 W/m² | - |
| 1778038477 | 20.56° C | 74% | 1016.4 hPa | 0 mm | 0 m/s | 0 W/m² | - |
| 1778038174 | 20.56° C | 73% | 1016.3 hPa | 0 mm | 0 m/s | 0 W/m² | - |
| 1778037871 | 20.56° C | 73% | 1016.3 hPa | 0 mm | 0 m/s | 0 W/m² | - |
| 1778037567 | 21.11° C | 72% | 1016.4 hPa | 0 mm | 0 m/s | 0 W/m² | - |
| 1778037265 | 21.11° C | 72% | 1016.1 hPa | 0 mm | 0 m/s | 0 W/m² | - |
| 1778036962 | 21.11° C | 70% | 1016.2 hPa | 0 mm | 0 m/s | 0 W/m² | - |
| 1778036660 | 21.67° C | 69% | 1016 hPa | 0 mm | 0 m/s | 0 W/m² | - |
| 1778036357 | 21.67° C | 70% | 1015.9 hPa | 0 mm | 0 m/s | 0 W/m² | - |
| 1778036054 | 21.11° C | 70% | 1015.9 hPa | 0 mm | 0.45 m/s, 261° | 0 W/m² | - |
| 1778035750 | 21.11° C | 70% | 1015.9 hPa | 0 mm | 0 m/s | 0 W/m² | - |
* Rain latest hour (hover to see other rain measurements)
** Current wind speed in m/s (hover to see current wind gust speed)